Nos coordonnées

Nous sommes à votre écoute du lundi au dimanche de 10:00 à 19:00 au :

+32 (0)495 19 89 53

 

Adresse d'exploitation Adresse de facturation
Chaussée de Nivelles, 629
6230 Buzet
Belgique
Kouter 107/2
9000 Gent
Belgique

contact @ blackhelicopters.be (n'oubliez pas de supprimer les espaces)


Nous retrouver

Il est très fortement conseillé de nous appeler avant de venir sur le terrain, nous pouvons être en mission ou en vol!

 

La carte ci-dessous est interactive, cherchez vos itinéraires, déplacez la pour vous retrouver.

News

Votre panier

Le panier est vide

Météo Charleroi

METAR
EBCI 241850Z 15007KT 9999 -RA FEW008 SCT036 17/15 Q1009 BECMG NSW =
EBCI 241710Z 2418/2524 18005KT 9999 SCT035CB SCT045 TEMPO 2418/2421 VRB18G30KT 2500 SHRA TSRA PROB30 TEMPO 2421/2424 4000 SHRA PROB30 TEMPO 2422/2506 2000 MIFG BR PROB40 TEMPO 2512/2521 VRB15G25KT 3000 SHRA TSRA
TAF
EBCI 241710Z 2418/2524 18005KT 9999 SCT035CB SCT045 TEMPO 2418/2421 VRB18G30KT 2500 SHRA TSRA PROB30 TEMPO 2421/2424 4000 SHRA PROB30 TEMPO 2422/2506 2000 MIFG BR PROB40 TEMPO 2512/2521 VRB15G25KT 3000 SHRA TSRA =
Lever / Coucher : 04:01 / 19:38 UTC (Buzet 2021-07-24)